Content
SEND FEEDBACK

Daily
Averages
Monthly
Summary
United States of America

MAYFIELD, KENTUCKY


Home > North America > United States > Kentucky
Elevation: 38 feet     Latitude: 36 47N     Longitude: 088 38W

WEATHER
 
SELECT A DAY
Number of Records: 84,601;   Date Range: 11/9/10 - 8/22/14
 
SHARE

PRINT THIS DATA

[ ← Previous Day ]
WEATHER ALMANAC - JANUARY 31, 2013
[ Next Day → ]
[ °C ]   °F
Weather ElementAverageHighLow
Temperature33.5 °F41 °F (1:15 pm)23 °F (11:35 pm)
Dewpoint22.4 °F32 °F (6:55 pm)14 °F (11:15 pm)
Humidity64.6 %100 % (7:15 pm)53 % (1:15 pm)
Barometer30.08 in30.31 in (11:55 pm)29.96 in (1:15 am)
Wind Speed14.3 mph29.9 mph (9:35 pm)
Wind Gust34.5 mph (9:35 pm)
Weather ElementAverage
Visibility9.6 mi
Wind DirectionW (274.3 °)

Weather ElementTotal
Precipitation0.14 in
Heating Degree Days33 (Base 65)
Averaged from 67 records on January 31, 2013
WEATHER CONDITIONS BREAKOUT
WIND DIRECTION BREAKOUT
WEATHER BY HOUR - JANUARY 31, 2013
[ °C ]   °F
Local TimeTemperatureDewpointHumidityBarometerVisibilityWind DirectionWind SpeedGust SpeedPrecipitationEventsConditions
12:55 AM32.0 °F19.4 °F60 %29.97 in10.0 miWest (280°)12.7 mph25.3 mphOvercast
1:15 AM32.0 °F21.2 °F64 %29.96 in10.0 miWest (280°)12.7 mph19.6 mphOvercast
1:35 AM32.0 °F19.4 °F60 %29.96 in10.0 miWest (280°)19.6 mph26.5 mphOvercast
1:55 AM32.0 °F19.4 °F60 %29.97 in10.0 miWNW (290°)16.1 mph25.3 mphOvercast
2:15 AM32.0 °F19.4 °F60 %29.97 in10.0 miWNW (290°)13.8 mph19.6 mphOvercast
2:35 AM30.2 °F19.4 °F64 %29.97 in10.0 miWNW (290°)17.3 mph25.3 mphOvercast
2:55 AM30.2 °F19.4 °F64 %29.98 in10.0 miWNW (290°)12.7 mphOvercast
3:15 AM30.2 °F19.4 °F64 %29.99 in10.0 miWNW (290°)10.4 mphOvercast
3:35 AM30.2 °F19.4 °F64 %29.98 in10.0 miWNW (300°)12.7 mph19.6 mphOvercast
3:55 AM30.2 °F17.6 °F60 %29.98 in10.0 miWest (280°)11.5 mphOvercast
4:15 AM30.2 °F19.4 °F64 %29.99 in10.0 miWest (270°)9.2 mphOvercast
4:35 AM30.2 °F19.4 °F64 %29.99 in10.0 miWest (270°)8.1 mphOvercast
4:55 AM30.2 °F19.4 °F64 %30.00 in10.0 miWest (270°)9.2 mphOvercast
5:15 AM30.2 °F21.2 °F69 %30.00 in10.0 miWest (260°)10.4 mphOvercast
5:35 AM32.0 °F21.2 °F64 %30.02 in10.0 miWNW (290°)16.1 mph20.7 mphOvercast
5:55 AM30.2 °F19.4 °F64 %30.03 in10.0 miWNW (290°)16.1 mph21.9 mphOvercast
6:15 AM30.2 °F19.4 °F64 %30.03 in10.0 miWNW (290°)11.5 mph16.1 mphOvercast
6:35 AM28.4 °F17.6 °F64 %30.04 in10.0 miWest (280°)11.5 mph20.7 mphOvercast
6:55 AM28.4 °F17.6 °F64 %30.04 in10.0 miWest (260°)11.5 mphScattered Clouds
7:15 AM28.4 °F19.4 °F69 %30.06 in10.0 miWest (260°)10.4 mphPartly Cloudy
7:35 AM28.4 °F19.4 °F69 %30.07 in10.0 miWest (260°)10.4 mphMostly Cloudy
7:55 AM30.2 °F19.4 °F64 %30.07 in10.0 miWSW (250°)9.2 mphOvercast
8:15 AM32.0 °F19.4 °F60 %30.09 in10.0 miWest (260°)13.8 mphMostly Cloudy
8:35 AM32.0 °F19.4 °F60 %30.10 in10.0 miWest (260°)16.1 mph19.6 mphMostly Cloudy
8:55 AM32.0 °F19.4 °F60 %30.11 in10.0 miWSW (250°)15.0 mph23.0 mphMostly Cloudy
9:15 AM32.0 °F19.4 °F60 %30.09 in10.0 miWSW (250°)15.0 mph20.7 mphOvercast
9:35 AM32.0 °F21.2 °F64 %30.11 in10.0 miWest (260°)13.8 mph19.6 mphOvercast
9:55 AM32.0 °F23.0 °F69 %30.12 in10.0 miWest (260°)13.8 mphOvercast
10:15 AM33.8 °F23.0 °F65 %30.11 in10.0 miWSW (240°)16.1 mph21.9 mphMostly Cloudy
10:35 AM35.6 °F23.0 °F60 %30.12 in10.0 miWSW (240°)16.1 mph20.7 mphScattered Clouds
10:55 AM35.6 °F23.0 °F60 %30.12 in10.0 miWSW (250°)15.0 mph18.4 mphOvercast
11:15 AM37.4 °F23.0 °F56 %30.11 in10.0 miWest (270°)13.8 mph19.6 mphMostly Cloudy
11:35 AM37.4 °F24.8 °F60 %30.11 in10.0 miWSW (250°)15.0 mph20.7 mphPartly Cloudy
11:55 AM37.4 °F24.8 °F60 %30.10 in10.0 miWSW (240°)11.5 mph17.3 mphClear
12:15 PM39.2 °F24.8 °F56 %30.08 in10.0 miWSW (250°)13.8 mph19.6 mphClear
12:35 PM39.2 °F24.8 °F56 %30.07 in10.0 miWSW (240°)15.0 mph21.9 mphClear
12:55 PM39.2 °F24.8 °F56 %30.07 in10.0 miSW (230°)11.5 mph19.6 mphPartly Cloudy
1:15 PM41.0 °F24.8 °F53 %30.06 in10.0 miWest (260°)15.0 mphPartly Cloudy
1:35 PM41.0 °F24.8 °F53 %30.05 in10.0 miWest (260°)15.0 mph21.9 mphPartly Cloudy
1:55 PM41.0 °F24.8 °F53 %30.05 in10.0 miWSW (250°)13.8 mph24.2 mphClear
2:15 PM41.0 °F24.8 °F53 %30.04 in10.0 miWSW (240°)16.1 mph20.7 mphScattered Clouds
2:35 PM41.0 °F24.8 °F53 %30.03 in10.0 miSW (230°)12.7 mph23.0 mphMostly Cloudy
2:55 PM41.0 °F24.8 °F53 %30.03 in10.0 miSW (220°)12.7 mph21.9 mphMostly Cloudy
3:15 PM41.0 °F24.8 °F53 %30.04 in10.0 miWSW (250°)16.1 mph19.6 mphMostly Cloudy
3:55 PM41.0 °F24.8 °F53 %30.05 in10.0 miWest (260°)16.1 mph25.3 mphOvercast
4:15 PM41.0 °F24.8 °F53 %30.05 in10.0 miWest (260°)17.3 mph21.9 mphOvercast
4:35 PM41.0 °F26.6 °F57 %30.05 in10.0 miWSW (250°)13.8 mph17.3 mphMostly Cloudy
4:55 PM41.0 °F26.6 °F57 %30.04 in10.0 miWest (260°)11.5 mphScattered Clouds
5:15 PM39.2 °F26.6 °F61 %30.04 in10.0 miWest (260°)6.9 mphPartly Cloudy
5:35 PM39.2 °F28.4 °F65 %30.05 in10.0 miWest (260°)10.4 mphMostly Cloudy
5:55 PM39.2 °F28.4 °F65 %30.05 in10.0 miWest (270°)9.2 mph16.1 mphMostly Cloudy
6:15 PM41.0 °F28.4 °F61 %30.07 in10.0 miWest (280°)15.0 mph20.7 mphOvercast
6:35 PM39.2 °F28.4 °F65 %30.08 in10.0 miWNW (300°)16.1 mph24.2 mphOvercast
6:55 PM35.6 °F32.0 °F87 %30.10 in8.0 miWNW (300°)21.9 mph29.9 mphOvercast
7:15 PM32.0 °F32.0 °F100 %30.13 in1.8 miWNW (300°)16.1 mph28.8 mph0.03 inOvercast
7:35 PM32.0 °F32.0 °F100 %30.14 in0.8 miNW (310°)17.3 mph25.3 mph0.04 inOvercast
8:15 PM32.0 °F32.0 °F100 %30.15 in3.0 miWNW (290°)15.0 mph0.01 inOvercast
8:35 PM32.0 °F28.4 °F87 %30.16 in10.0 miNW (310°)19.6 mph27.6 mph0.03 inOvercast
8:55 PM32.0 °F26.6 °F80 %30.17 in10.0 miNW (310°)17.3 mph24.2 mph0.03 inOvercast
9:15 PM32.0 °F26.6 °F80 %30.18 in10.0 miNW (320°)19.6 mph28.8 mphOvercast
9:35 PM28.4 °F21.2 °F74 %30.20 in10.0 miNW (320°)29.9 mph34.5 mphOvercast
10:15 PM26.6 °F17.6 °F69 %30.24 in10.0 miNW (320°)17.3 mph24.2 mphPartly Cloudy
10:35 PM24.8 °F15.8 °F69 %30.26 in10.0 miNW (320°)17.3 mph25.3 mphClear
10:55 PM24.8 °F15.8 °F69 %30.27 in10.0 miNW (320°)12.7 mph19.6 mphClear
11:15 PM24.8 °F14.0 °F64 %30.29 in10.0 miNW (320°)16.1 mph23.0 mphClear
11:35 PM23.0 °F14.0 °F68 %30.30 in10.0 miNNW (330°)12.7 mph21.9 mphClear
11:55 PM23.0 °F14.0 °F68 %30.31 in10.0 miNNW (330°)17.3 mph21.9 mphPartly Cloudy
Hourly data recorded from KCEY, located miles away from Mayfield, Kentucky







STORIES FROM OUR PARTNERS